Paris / Charles De Gaulle, France

10:58 AM CEST on July 23, 2017 (GMT +0200)
Charles de Gaulle

Weather History for LFPG - March, 2013

Change the Weather History Date:

Thursday, March 21, 2013

  Actual Average Record
Temperature  
Mean Temperature 40 °F -  
Max Temperature 48 °F 56 °F 64 °F (2005)
Min Temperature 33 °F 41 °F 32 °F (2009)
Degree Days  
Heating Degree Days 24    
Moisture  
Dew Point 35 °F    
Average Humidity 79    
Maximum Humidity 93    
Minimum Humidity 66    
Precipitation  
Precipitation 0.00 in - - ()
Sea Level Pressure  
Sea Level Pressure 29.99 in    
Wind  
Wind Speed 7 mph ()    
Max Wind Speed 13 mph    
Max Gust Speed -    
Visibility 3.0 miles    
Events Rain    
Averages and records for this station are not official NWS values.
T = Trace of Precipitation, MM = Missing Value Source: Averaged Metar Reports

Daily Weather History Graph

Daily Weather History Graph

Search for Another Location

Airport or City:

Trip Planner

Search our weather history database for the weather conditions in past years. The results will help you decide how hot, cold, wet, or windy it might be!

Date:

Astronomy

Mar. 21, 2013 Rise Set
Actual Time 6:50 AM CET 7:04 PM CET
Civil Twilight 6:18 AM CET 7:36 PM CET
Nautical Twilight 5:41 AM CET 8:13 PM CET
Astronomical Twilight 5:03 AM CET 8:52 PM CET
Moon 12:54 PM CET (3/21) 3:28 AM CET (3/21)
Length of Visible Light 13h 17m
Length of Day
12h 13m
Waxing Gibbous, 66% of the Moon is Illuminated
Mar 21
Waxing Gibbous
Mar 27
Full
Apr 3
Last Quarter
Apr 10
New
Apr 18
First Quarter

Hourly Weather History & Observations

Time (CET) Temp. Windchill Dew Point Humidity Pressure Visibility Wind Dir Wind Speed Gust Speed Precip Events Conditions
12:00 AM 37.4 °F - 33.8 °F 87% 29.98 in 2.8 mi North 2.3 mph - N/A   Mist
12:30 AM 37.4 °F - 32.0 °F 81% 29.98 in 2.2 mi Calm Calm - N/A   Scattered Clouds
1:00 AM 35.6 °F - 32.0 °F 87% 30.01 in 1.9 mi Calm Calm - N/A   Mostly Cloudy
1:30 AM 35.6 °F - 33.8 °F 93% 30.01 in 1.9 mi NE 1.2 mph - N/A   Mostly Cloudy
2:00 AM 37.4 °F 34.9 °F 33.8 °F 87% 30.01 in 1.9 mi North 3.5 mph - N/A   Mostly Cloudy
2:30 AM 35.6 °F 31.7 °F 32.0 °F 87% 30.01 in 1.6 mi NE 4.6 mph - N/A   Mostly Cloudy
3:00 AM 33.8 °F 28.6 °F 32.0 °F 93% 30.01 in 1.6 mi ENE 5.8 mph - N/A   Scattered Clouds
3:30 AM 35.6 °F 29.2 °F 32.0 °F 87% 30.01 in 1.7 mi East 8.1 mph - N/A   Scattered Clouds
4:00 AM 35.6 °F 29.2 °F 33.8 °F 93% 30.01 in 1.7 mi ESE 8.1 mph - N/A   Mostly Cloudy
4:30 AM 35.6 °F 29.2 °F 33.8 °F 93% 30.01 in 1.7 mi ESE 8.1 mph - N/A   Scattered Clouds
5:00 AM 35.6 °F 29.2 °F 33.8 °F 93% 30.01 in 1.7 mi ESE 8.1 mph - N/A   Mostly Cloudy
5:30 AM 35.6 °F 29.2 °F 32.0 °F 87% 30.01 in 1.6 mi East 8.1 mph - N/A   Mostly Cloudy
6:00 AM 35.6 °F 29.2 °F 33.8 °F 93% 30.01 in 1.9 mi ESE 8.1 mph - N/A   Mostly Cloudy
6:30 AM 35.6 °F 27.1 °F 33.8 °F 93% 30.01 in 1.9 mi ESE 12.7 mph - N/A   Mostly Cloudy
7:00 AM 35.6 °F 28.0 °F 32.0 °F 87% 30.01 in 1.4 mi East 10.4 mph - N/A   Mostly Cloudy
7:30 AM 37.4 °F 30.8 °F 32.0 °F 81% 30.01 in 1.6 mi East 9.2 mph - N/A   Mostly Cloudy
8:00 AM 37.4 °F 30.3 °F 33.8 °F 87% 30.01 in 1.6 mi East 10.4 mph - N/A   Mostly Cloudy
8:30 AM 37.4 °F 29.8 °F 32.0 °F 81% 30.04 in 2.5 mi ESE 11.5 mph - N/A   Mostly Cloudy
9:00 AM 37.4 °F 29.8 °F 32.0 °F 81% 30.04 in 2.8 mi ESE 11.5 mph - N/A   Mostly Cloudy
9:30 AM 39.2 °F 31.6 °F 32.0 °F 75% 30.04 in 3.1 mi ESE 12.7 mph - N/A   Mostly Cloudy
10:00 AM 39.2 °F 31.6 °F 32.0 °F 75% 30.04 in 3.7 mi ESE 12.7 mph - N/A   Mostly Cloudy
10:30 AM 41.0 °F 34.3 °F 32.0 °F 70% 30.04 in 3.7 mi ESE 11.5 mph - N/A   Mostly Cloudy
11:00 AM 41.0 °F 34.3 °F 33.8 °F 76% 30.04 in 3.7 mi ESE 11.5 mph - N/A   Mostly Cloudy
11:30 AM 42.8 °F 36.6 °F 33.8 °F 70% 30.04 in 3.7 mi ESE 11.5 mph - N/A   Mostly Cloudy
12:00 PM 42.8 °F 36.6 °F 35.6 °F 76% 30.04 in 3.7 mi ESE 11.5 mph - N/A   Mostly Cloudy
12:30 PM 42.8 °F 37.0 °F 35.6 °F 76% 30.04 in 3.7 mi ESE 10.4 mph - N/A   Mostly Cloudy
1:00 PM 44.6 °F 39.2 °F 35.6 °F 71% 30.04 in 3.7 mi ESE 10.4 mph - N/A   Mostly Cloudy
1:30 PM 44.6 °F 39.2 °F 37.4 °F 76% 30.01 in 3.7 mi SE 10.4 mph - N/A   Mostly Cloudy
2:00 PM 44.6 °F 39.2 °F 37.4 °F 76% 30.01 in 3.7 mi ESE 10.4 mph - N/A   Mostly Cloudy
2:30 PM 46.4 °F 40.7 °F 37.4 °F 71% 30.01 in 3.7 mi ESE 12.7 mph - N/A   Mostly Cloudy
3:00 PM 46.4 °F 40.7 °F 37.4 °F 71% 29.98 in 3.7 mi ESE 12.7 mph - N/A   Mostly Cloudy
3:30 PM 46.4 °F 41.1 °F 37.4 °F 71% 29.98 in 3.7 mi SE 11.5 mph - N/A   Mostly Cloudy
4:00 PM 46.4 °F 41.1 °F 37.4 °F 71% 29.98 in 3.7 mi ESE 11.5 mph - N/A   Mostly Cloudy
4:30 PM 46.4 °F 41.5 °F 37.4 °F 71% 29.98 in 3.7 mi SE 10.4 mph - N/A   Mostly Cloudy
5:00 PM 46.4 °F 41.1 °F 37.4 °F 71% 29.95 in 3.7 mi SE 11.5 mph - N/A   Mostly Cloudy
5:30 PM 48.2 °F - 37.4 °F 66% 29.95 in 4.3 mi SE 9.2 mph - N/A   Mostly Cloudy
6:00 PM 46.4 °F 41.5 °F 37.4 °F 71% 29.95 in 4.3 mi ESE 10.4 mph - N/A   Mostly Cloudy
6:30 PM 46.4 °F 41.1 °F 37.4 °F 71% 29.95 in 4.3 mi ESE 11.5 mph - N/A   Unknown
7:00 PM 46.4 °F 41.5 °F 37.4 °F 71% 29.95 in 4.3 mi ESE 10.4 mph - N/A   Unknown
7:30 PM 46.4 °F 41.9 °F 37.4 °F 71% 29.95 in 4.3 mi East 9.2 mph - N/A   Unknown
8:00 PM 46.4 °F 41.9 °F 37.4 °F 71% 29.95 in 4.3 mi East 9.2 mph - N/A Rain Light Rain
8:30 PM 44.6 °F 39.2 °F 37.4 °F 76% 29.95 in 3.7 mi East 10.4 mph - N/A   Mostly Cloudy
9:00 PM 44.6 °F 40.7 °F 37.4 °F 76% 29.95 in 3.7 mi East 6.9 mph - N/A   Mostly Cloudy
9:30 PM 44.6 °F 40.2 °F 37.4 °F 76% 29.95 in 3.7 mi East 8.1 mph - N/A Rain Light Rain
10:00 PM 44.6 °F 39.7 °F 37.4 °F 76% 29.95 in 3.1 mi East 9.2 mph - N/A Rain Light Rain
10:30 PM 44.6 °F 39.7 °F 37.4 °F 76% 29.95 in 3.1 mi East 9.2 mph - N/A Rain Light Rain
11:00 PM 42.8 °F 37.0 °F 37.4 °F 81% 29.95 in 3.1 mi East 10.4 mph - N/A Rain Light Rain
11:30 PM 42.8 °F 36.6 °F 37.4 °F 81% 29.92 in 3.1 mi East 11.5 mph - N/A Rain Light Rain